STARLINK-31538 (59525 NORAD) Tracking and Keplerian Element Data

This shows tracking and keplerian element data for the satellite.

Feedback or suggestion? Click here.




ElementValue
Catalog59525
NameSTARLINK-31538
Epoch Orbit907
Epoch Day159.98023368
Epoch Year2024
RAAN3.3686
Inclination43.0027
Eccentricity6.13E-05
Argument of Perigee247.2407
Mean Anonmoly112.8385
Mean Motion15.40703178
Decay Rate3.434E-05
L11 59525U 24073Q 24159.98023368 .00003434 00000+0 89423-4 0 9995
L22 59525 43.0027 3.3686 0000613 247.2407 112.8385 15.40703178 9076



Live tracking and technical data element details for STARLINK-31538 (NORAD 59525). STARLINK-31538 can be tracked NOW for your location showing map with azimuth and elevation plus other details from your city location.







IsCatalogInMostPopularTable: catalog: 59525, numindb: 10
Update: records affected: 1



GetName: 59525 STARLINK-31538

Hit Count: updated at: Fri, 14 Jun 2024 19:06:10 GMT